Weather Roundup
Issued by NWS Chicago, IL

Home | Current Version | Previous Version | Graphics & Text | Print | Product List | Glossary On
Versions: 1 2 3 4 5 6 7 8 9 10 11 12 13 14 15 16 17 18 19 20 21 22 23 24 25 26 27 28 29 30 31 32 33 34 35 36 37 38 39 40 41 42 43 44 45 46 47 48 49 50
000
NZUS59 KLOT 191108
HRRLOT

CHICAGO AREA WEATHER ROUNDUP
NATIONAL WEATHER SERVICE CHICAGO/ROMEOVILLE IL
600 AM CDT SAT AUG 19 2017

NOTE: "FAIR" INDICATES FEW OR NO CLOUDS BELOW 12,000 FEET WITH NO
SIGNIFICANT WEATHER AND/OR OBSTRUCTIONS TO VISIBILITY.

* THESE STATIONS ARE NOT UNDER NWS QUALITY CONTROL. THEY ALSO MAY NOT
  REPORT WEATHER SUCH AS PRECIPITATION OR FOG.

ILZ005-006-012>014-019>023-191200-
NORTHEAST ILLINOIS

CITY           SKY/WX    TMP DP  RH WIND       PRES   REMARKS
OHARE          PTCLDY    63  59  87 CALM      29.92R
MIDWAY         PTCLDY    65  60  84 W3        29.92R
AURORA         PTCLDY    56  56 100 CALM      29.94R FOG
LANSING*       CLEAR     62  56  83 CALM      29.92R
JOLIET*        PTCLDY    62  61  99 CALM      29.93R
WAUKEGAN       PTCLDY    61  60  97 NW5       29.91R FOG
DUPAGE AIRPORT PTCLDY    59  59 100 CALM      29.92R
WHEELING       PTCLDY    61  61 100 N5        29.93R
MORRIS*        CLEAR     59  58  96 CALM      29.93R
LEWIS AIRPORT* PTCLDY    60  55  85 CALM      29.93R
NORTHERLY ISL    N/A     67  60  78 W2          N/A
$$

WIZ051-052-058>065-066-070>072-191200-
SOUTHEAST WISCONSIN

CITY           SKY/WX    TMP DP  RH WIND       PRES   REMARKS
MILWAUKEE      PTCLDY    65  62  90 W6        29.91R
KENOSHA*       CLEAR     62  59  90 NW6       29.92R
RACINE*        CLEAR     62  61  96 NW7       29.93R
WAUKESHA       PTCLDY    61  59  94 W6        29.94R FOG
WEST BEND      CLOUDY    63  61  94 NW6       29.92R
$$

INZ001>003-010>013-019-020-191200-
NORTHWEST INDIANA

CITY           SKY/WX    TMP DP  RH WIND       PRES   REMARKS
GARY*          PTCLDY    66  61  82 CALM      29.92R
MICHIGAN CITY* NOT AVBL
RENSSELAER*    NOT AVBL
VALPARAISO     CLEAR     63  62  97 W3        29.92R
$$

LMZ740>746-191200-
SOUTHERN LAKE MICHIGAN

STATION/POSITION TIME  SKY/WX   TEMP WIND        PRES    VSBY
                                AIR  DIR/SP/G
                 (UTC)          (F)  (DEG/KT/KT) (MB)    (MI)
HARRISON CRIB    1040            68  320/  7/  8   N/A
BURNHAM HARBOR   NOT AVBL
CALUMET HARBOR   1042            67  260/  2/  2 1012.5R
BURNS HARBOR     1040            70  350/  6/ 10 1013.2R
MICHIGAN CITY    1040            69  350/  7/  8   N/A
$$

ABBREVIATIONS USED IN REMARKS
   TC - TEMPERATURE IN CELSIUS
  WCI - WIND CHILL INDEX
   HX - HEAT INDEX
  VSB - VISIBILITY
$$




USA.gov is the U.S. government's official web portal to all federal, state and local government web resources and services.